Simultaneous Nadir Overpasses (SNOs) Predictions

Prediction of SNOs between AURA and NPP Satellite Orbit:

Table of predicted SNOs for the next 14.0 days since TLE Epoch: 7/13/2013
Index Date (AURA) Time (AURA) Lat,Lon (AURA) SZA (AURA ) Date (NPP) Time (NPP) Lat,Lon (NPP) SZA (NPP ) Distance(km) Time Diff (sec)
1 07/14/2013 03:42:05 79.15, 18.99 71.88 07/14/2013 03:41:13 79.15, 18.91 71.93 1.66 52
2 07/14/2013 04:31:24 -79.47,-171.29 108.59 07/14/2013 04:31:49 -79.47,-171.25 108.62 0.80 25
3 07/16/2013 19:58:29 79.25, 135.49 72.17 07/16/2013 19:58:03 79.25, 135.44 72.20 1.04 26
4 07/16/2013 20:47:49 -79.53, -55.00 108.25 07/16/2013 20:48:40 -79.54, -54.94 108.30 1.34 51
5 07/19/2013 11:28:01 -72.00, 60.27 98.80 07/19/2013 11:26:48 -72.32, 58.22 98.51 78.38 73
6 07/19/2013 12:14:52 79.41,-107.62 72.42 07/19/2013 12:14:52 79.41,-107.49 72.39 2.65 0
7 07/22/2013 03:41:59 -79.17,-160.92 106.73 07/22/2013 03:41:09 -79.16,-160.95 106.69 0.63 50
8 07/22/2013 04:31:17 79.46, 8.64 72.85 07/22/2013 04:31:44 79.47, 8.77 72.80 2.97 27
9 07/24/2013 19:58:22 -79.28, -44.30 106.35 07/24/2013 19:57:59 -79.29, -44.19 106.36 2.54 23
10 07/24/2013 20:47:42 79.50, 124.76 73.34 07/24/2013 20:48:37 79.50, 124.76 73.30 0.19 55
11 07/27/2013 11:25:24 79.08, -97.30 74.51 07/27/2013 11:24:12 79.08, -97.28 74.56 0.44 72




NCC Satellite Simultaneous Nadir Overpasses (SNOs) Prediction Service
